Time,TemperatureF,DewpointF,PressureIn,WindDirection,WindDirectionDegrees,WindSpeedMPH,WindSpeedGustMPH,Humidity,HourlyPrecipIn,Conditions,Clouds,dailyrainin,SolarRadiationWatts/m^2,SoftwareType,DateUTC
2013-06-06 00:01:00,80.4,76.2,29.86,SSE,153,4.0,6.0,87,0.00,,SCT017,0.01,0.00,VWS V14.00,2013-06-06 04:01:00,
2013-06-06 00:02:00,80.5,76.3,29.86,SE,146,5.0,8.0,87,0.00,,SCT017,0.00,0.00,VWS V14.00,2013-06-06 04:02:00,
2013-06-06 00:07:00,80.5,76.3,29.86,SE,141,8.0,10.0,87,0.00,,SCT017,0.00,0.00,VWS V14.00,2013-06-06 04:07:00,
2013-06-06 00:12:00,80.5,76.3,29.86,SE,142,3.0,9.0,87,0.00,,SCT017,0.00,0.00,VWS V14.00,2013-06-06 04:12:00,
2013-06-06 00:17:00,80.5,76.3,29.86,SSE,161,5.0,9.0,87,0.00,,SCT017,0.00,0.00,VWS V14.00,2013-06-06 04:17:00,
2013-06-06 00:22:00,80.6,76.4,29.86,SSE,165,2.0,7.0,87,0.00,,SCT017,0.00,0.00,VWS V14.00,2013-06-06 04:22:00,
2013-06-06 00:27:00,80.5,75.9,29.86,South,169,4.0,7.0,86,0.00,,SCT017,0.00,0.00,VWS V14.00,2013-06-06 04:27:00,
2013-06-06 00:32:00,80.6,76.0,29.86,SSE,165,6.0,7.0,86,0.00,,SCT017,0.00,0.00,VWS V14.00,2013-06-06 04:32:00,
2013-06-06 00:37:00,80.5,75.9,29.86,SSE,163,2.0,5.0,86,0.00,,SCT017,0.00,0.00,VWS V14.00,2013-06-06 04:37:00,
2013-06-06 00:42:00,80.5,75.9,29.86,SSE,160,8.0,11.0,86,0.00,,SCT017,0.00,0.00,VWS V14.00,2013-06-06 04:42:00,
2013-06-06 00:47:00,80.5,75.9,29.86,SSE,159,6.0,10.0,86,0.00,,SCT017,0.00,0.00,VWS V14.00,2013-06-06 04:47:00,
2013-06-06 00:52:00,80.5,75.6,29.85,SSE,161,5.0,12.0,85,0.00,,SCT017,0.00,0.00,VWS V14.00,2013-06-06 04:52:00,
2013-06-06 00:57:00,80.6,75.7,29.85,SSE,152,9.0,16.0,85,0.00,,SCT017,0.00,0.00,VWS V14.00,2013-06-06 04:57:00,
2013-06-06 01:02:00,80.6,75.7,29.84,SSE,157,9.0,11.0,85,0.00,,SCT017,0.00,0.00,VWS V14.00,2013-06-06 05:02:00,
2013-06-06 01:07:00,80.6,75.7,29.85,SSE,163,4.0,9.0,85,0.00,,SCT017,0.00,0.00,VWS V14.00,2013-06-06 05:07:00,
2013-06-06 01:12:00,80.7,75.8,29.84,SSE,158,14.0,17.0,85,0.00,,SCT017,0.00,0.00,VWS V14.00,2013-06-06 05:12:00,
2013-06-06 01:17:00,80.5,75.9,29.84,SSE,155,13.0,14.0,86,0.00,,SCT017,0.01,0.00,VWS V14.00,2013-06-06 05:17:00,
2013-06-06 01:22:00,80.1,75.9,29.84,SSE,162,5.0,9.0,87,0.00,,SCT017,0.01,0.00,VWS V14.00,2013-06-06 05:22:00,
2013-06-06 01:27:00,79.9,75.7,29.84,South,173,6.0,14.0,87,0.00,,SCT017,0.01,0.00,VWS V14.00,2013-06-06 05:27:00,
2013-06-06 01:33:00,79.8,75.6,29.83,South,171,11.0,16.0,87,0.00,,SCT017,0.01,0.00,VWS V14.00,2013-06-06 05:33:00,
2013-06-06 01:38:00,79.8,75.6,29.83,SSE,165,9.0,11.0,87,0.00,,SCT017,0.01,0.00,VWS V14.00,2013-06-06 05:38:00,
2013-06-06 01:43:00,79.8,75.6,29.83,SSE,156,11.0,15.0,87,0.00,,SCT017,0.01,0.00,VWS V14.00,2013-06-06 05:43:00,
2013-06-06 01:48:00,79.9,75.7,29.83,SSE,155,10.0,13.0,87,0.00,,SCT017,0.01,0.00,VWS V14.00,2013-06-06 05:48:00,
2013-06-06 01:53:00,80.0,75.8,29.83,SSE,155,5.0,9.0,87,0.00,,SCT017,0.01,0.00,VWS V14.00,2013-06-06 05:53:00,
2013-06-06 01:58:00,79.9,75.7,29.83,South,170,4.0,12.0,87,0.00,,SCT017,0.01,0.00,VWS V14.00,2013-06-06 05:58:00,
2013-06-06 02:04:00,79.9,75.7,29.82,SSE,147,4.0,9.0,87,0.00,,SCT017,0.01,0.00,VWS V14.00,2013-06-06 06:04:00,
2013-06-06 02:09:00,80.0,75.4,29.82,SSE,158,4.0,10.0,86,0.00,,SCT017,0.01,0.00,VWS V14.00,2013-06-06 06:09:00,
2013-06-06 02:14:00,80.1,75.5,29.82,South,169,6.0,9.0,86,0.00,,SCT017,0.01,0.00,VWS V14.00,2013-06-06 06:14:00,
2013-06-06 02:19:00,80.2,75.6,29.82,SE,145,4.0,10.0,86,0.00,,SCT017,0.01,0.00,VWS V14.00,2013-06-06 06:19:00,
2013-06-06 02:24:00,80.3,75.7,29.82,SSE,165,6.0,6.0,86,0.00,,SCT017,0.01,0.00,VWS V14.00,2013-06-06 06:24:00,
2013-06-06 02:29:00,80.3,75.7,29.82,SSE,165,5.0,8.0,86,0.00,,SCT017,0.01,0.00,VWS V14.00,2013-06-06 06:29:00,
2013-06-06 02:34:00,80.3,75.7,29.82,SSE,159,4.0,13.0,86,0.00,,SCT017,0.01,0.00,VWS V14.00,2013-06-06 06:34:00,
2013-06-06 02:39:00,80.3,75.7,29.82,SSE,153,10.0,12.0,86,0.00,,SCT017,0.01,0.00,VWS V14.00,2013-06-06 06:39:00,
2013-06-06 02:44:00,80.3,75.7,29.81,South,173,11.0,13.0,86,0.00,,SCT017,0.01,0.00,VWS V14.00,2013-06-06 06:44:00,
2013-06-06 02:49:00,80.4,75.8,29.81,SSE,162,3.0,9.0,86,0.00,,SCT017,0.01,0.00,VWS V14.00,2013-06-06 06:49:00,
2013-06-06 02:54:00,80.3,75.7,29.81,SSE,159,10.0,13.0,86,0.00,,SCT017,0.01,0.00,VWS V14.00,2013-06-06 06:54:00,
2013-06-06 02:59:00,80.3,75.7,29.81,South,180,8.0,15.0,86,0.00,,SCT017,0.01,0.00,VWS V14.00,2013-06-06 06:59:00,
2013-06-06 03:04:00,80.3,75.7,29.81,South,169,5.0,7.0,86,0.00,,SCT017,0.01,0.00,VWS V14.00,2013-06-06 07:04:00,
2013-06-06 03:09:00,80.2,75.6,29.81,South,180,5.0,12.0,86,0.00,,SCT017,0.01,0.00,VWS V14.00,2013-06-06 07:09:00,
2013-06-06 03:14:00,80.2,76.0,29.81,SSE,165,6.0,12.0,87,0.00,,SCT017,0.01,0.00,VWS V14.00,2013-06-06 07:14:00,
2013-06-06 03:19:00,80.0,75.8,29.80,SSE,161,5.0,10.0,87,0.00,,SCT017,0.01,0.00,VWS V14.00,2013-06-06 07:19:00,
2013-06-06 03:24:00,79.9,75.7,29.80,SSE,164,3.0,4.0,87,0.00,,SCT017,0.02,0.00,VWS V14.00,2013-06-06 07:24:00,
2013-06-06 03:29:00,79.7,75.5,29.79,SSE,161,5.0,12.0,87,0.00,,SCT017,0.02,0.00,VWS V14.00,2013-06-06 07:29:00,
2013-06-06 03:34:00,79.4,75.5,29.79,SE,146,5.0,16.0,88,0.06,,SCT017,0.03,0.00,VWS V14.00,2013-06-06 07:34:00,
2013-06-06 03:39:00,79.3,75.4,29.79,SSE,163,10.0,10.0,88,0.09,,SCT017,0.04,0.00,VWS V14.00,2013-06-06 07:39:00,
2013-06-06 03:44:00,79.1,75.2,29.79,SSE,167,4.0,10.0,88,0.14,,SCT017,0.05,0.00,VWS V14.00,2013-06-06 07:44:00,
2013-06-06 03:49:00,79.0,75.5,29.78,SSE,155,9.0,10.0,89,0.12,,SCT017,0.06,0.00,VWS V14.00,2013-06-06 07:49:00,
2013-06-06 03:54:00,78.9,75.4,29.78,SSE,160,7.0,7.0,89,0.06,,SCT017,0.06,0.00,VWS V14.00,2013-06-06 07:54:00,
2013-06-06 03:59:00,78.8,75.3,29.79,SE,144,10.0,10.0,89,0.06,,SCT017,0.07,0.00,VWS V14.00,2013-06-06 07:59:00,
2013-06-06 04:04:00,78.7,75.2,29.78,SSE,163,7.0,12.0,89,0.07,,SCT017,0.08,0.00,VWS V14.00,2013-06-06 08:04:00,
2013-06-06 04:09:00,78.6,75.1,29.78,SSE,166,4.0,7.0,89,0.07,,SCT017,0.08,0.00,VWS V14.00,2013-06-06 08:09:00,
2013-06-06 04:14:00,78.6,75.1,29.78,SSE,159,5.0,13.0,89,0.07,,SCT017,0.09,0.00,VWS V14.00,2013-06-06 08:14:00,
2013-06-06 04:19:00,78.5,75.0,29.78,SSE,150,5.0,12.0,89,0.07,,SCT017,0.09,0.00,VWS V14.00,2013-06-06 08:19:00,
2013-06-06 04:24:00,78.5,75.0,29.78,SSE,159,10.0,11.0,89,0.05,,SCT017,0.10,0.00,VWS V14.00,2013-06-06 08:24:00,
2013-06-06 04:29:00,78.5,75.0,29.79,South,176,9.0,12.0,89,0.05,,SCT017,0.10,0.00,VWS V14.00,2013-06-06 08:29:00,
2013-06-06 04:34:00,78.6,75.1,29.78,SSE,155,7.0,10.0,89,0.07,,SCT017,0.11,0.00,VWS V14.00,2013-06-06 08:34:00,
2013-06-06 04:39:00,78.6,75.1,29.78,South,184,9.0,10.0,89,0.09,,SCT017,0.12,0.00,VWS V14.00,2013-06-06 08:39:00,
2013-06-06 04:44:00,78.6,75.1,29.79,South,190,9.0,13.0,89,0.09,,SCT017,0.12,0.00,VWS V14.00,2013-06-06 08:44:00,
2013-06-06 04:49:00,78.6,75.1,29.78,South,174,5.0,8.0,89,0.05,,SCT017,0.12,0.00,VWS V14.00,2013-06-06 08:49:00,
2013-06-06 04:54:00,78.6,75.1,29.79,South,186,11.0,13.0,89,0.04,,SCT017,0.13,0.00,VWS V14.00,2013-06-06 08:54:00,
2013-06-06 04:59:00,78.5,75.0,29.78,SSE,160,9.0,14.0,89,0.12,,SCT017,0.14,0.00,VWS V14.00,2013-06-06 08:59:00,
2013-06-06 05:04:00,78.5,75.0,29.78,South,180,11.0,11.0,89,0.21,,SCT017,0.16,0.00,VWS V14.00,2013-06-06 09:04:00,
2013-06-06 05:09:00,78.4,74.9,29.78,SSE,167,11.0,11.0,89,0.12,,SCT017,0.16,0.00,VWS V14.00,2013-06-06 09:09:00,
2013-06-06 05:14:00,78.3,74.8,29.78,South,169,9.0,9.0,89,0.70,,SCT017,0.21,0.00,VWS V14.00,2013-06-06 09:14:00,
2013-06-06 05:20:00,78.3,75.1,29.77,South,185,8.0,11.0,90,0.17,,SCT017,0.22,0.00,VWS V14.00,2013-06-06 09:20:00,
2013-06-06 05:24:00,78.2,75.0,29.77,SSW,193,6.0,15.0,90,0.12,,SCT017,0.23,0.00,VWS V14.00,2013-06-06 09:24:00,
2013-06-06 05:30:00,78.3,75.1,29.77,SSE,166,1.0,6.0,90,0.81,,SCT017,0.27,0.00,VWS V14.00,2013-06-06 09:30:00,
2013-06-06 05:35:00,78.3,75.1,29.78,SSE,160,6.0,17.0,90,0.17,,SCT017,0.29,0.00,VWS V14.00,2013-06-06 09:35:00,
2013-06-06 05:40:00,78.2,75.0,29.78,South,177,7.0,7.0,90,0.12,,SCT017,0.29,0.00,VWS V14.00,2013-06-06 09:40:00,
2013-06-06 05:45:00,78.3,75.1,29.77,South,173,5.0,11.0,90,2.73,,SCT017,0.33,0.00,VWS V14.00,2013-06-06 09:45:00,
2013-06-06 05:50:00,78.2,75.0,29.77,SSW,202,11.0,13.0,90,0.30,,SCT017,0.35,0.00,VWS V14.00,2013-06-06 09:50:00,
2013-06-06 05:55:00,78.0,74.8,29.78,SSW,193,7.0,18.0,90,0.17,,SCT017,0.36,0.00,VWS V14.00,2013-06-06 09:55:00,
2013-06-06 06:00:00,77.5,74.3,29.77,South,190,5.0,12.0,90,0.10,,SCT017,0.38,0.00,VWS V14.00,2013-06-06 10:00:00,
2013-06-06 06:05:00,77.1,73.9,29.77,SSW,206,0.0,5.0,90,0.13,,SCT017,0.39,0.00,VWS V14.00,2013-06-06 10:05:00,
2013-06-06 06:10:00,76.8,73.7,29.77,SSW,202,0.0,3.0,90,0.16,,SCT017,0.40,0.00,VWS V14.00,2013-06-06 10:10:00,
2013-06-06 06:15:00,76.8,73.7,29.76,SSW,202,2.0,7.0,90,0.08,,SCT017,0.41,0.00,VWS V14.00,2013-06-06 10:15:00,
2013-06-06 06:20:00,76.9,73.8,29.76,SSW,202,3.0,5.0,90,0.08,,SCT017,0.42,0.00,VWS V14.00,2013-06-06 10:20:00,
2013-06-06 06:25:00,77.1,73.9,29.76,SSW,207,4.0,6.0,90,0.09,,SCT017,0.42,0.00,VWS V14.00,2013-06-06 10:25:00,
2013-06-06 06:30:00,77.4,74.2,29.77,South,176,6.0,9.0,90,0.08,,SCT017,0.43,0.00,VWS V14.00,2013-06-06 10:30:00,
2013-06-06 06:35:00,77.7,74.5,29.77,SSW,204,10.0,12.0,90,0.16,,SCT017,0.44,0.00,VWS V14.00,2013-06-06 10:35:00,
2013-06-06 06:40:00,77.7,74.5,29.77,South,187,4.0,7.0,90,0.09,,SCT017,0.45,0.00,VWS V14.00,2013-06-06 10:40:00,
2013-06-06 06:45:00,77.5,74.3,29.77,South,178,4.0,11.0,90,0.31,,SCT017,0.47,0.00,VWS V14.00,2013-06-06 10:45:00,
2013-06-06 06:50:00,77.2,74.0,29.77,South,181,4.0,10.0,90,0.09,,SCT017,0.47,0.00,VWS V14.00,2013-06-06 10:50:00,
2013-06-06 06:55:00,77.0,73.8,29.77,South,182,5.0,9.0,90,0.05,,SCT017,0.47,0.00,VWS V14.00,2013-06-06 10:55:00,
2013-06-06 07:00:00,76.9,73.8,29.77,South,182,5.0,5.0,90,0.04,,SCT017,0.47,0.00,VWS V14.00,2013-06-06 11:00:00,
2013-06-06 07:05:00,76.9,73.8,29.77,South,186,0.0,7.0,90,0.00,,SCT017,0.48,0.00,VWS V14.00,2013-06-06 11:05:00,
2013-06-06 07:10:00,77.0,73.8,29.77,South,179,3.0,5.0,90,0.00,,SCT017,0.48,0.00,VWS V14.00,2013-06-06 11:10:00,
2013-06-06 07:15:00,77.1,73.9,29.76,South,175,6.0,6.0,90,0.00,,SCT017,0.49,0.00,VWS V14.00,2013-06-06 11:15:00,
2013-06-06 07:20:00,77.4,74.2,29.76,South,176,3.0,4.0,90,0.05,,SCT017,0.49,0.00,VWS V14.00,2013-06-06 11:20:00,
2013-06-06 07:25:00,77.5,74.3,29.77,South,176,0.0,5.0,90,0.08,,SCT017,0.50,0.00,VWS V14.00,2013-06-06 11:25:00,
2013-06-06 07:30:00,77.8,74.6,29.77,South,176,0.0,0.0,90,0.85,,SCT017,0.55,0.00,VWS V14.00,2013-06-06 11:30:00,
2013-06-06 07:35:00,77.9,74.7,29.77,SSW,197,11.0,11.0,90,0.42,,SCT017,0.60,0.00,VWS V14.00,2013-06-06 11:35:00,
2013-06-06 07:40:00,77.3,74.1,29.77,SSW,200,5.0,12.0,90,0.22,,SCT017,0.61,0.00,VWS V14.00,2013-06-06 11:40:00,
2013-06-06 07:45:00,76.9,73.8,29.77,SSW,193,4.0,7.0,90,0.07,,SCT017,0.61,0.00,VWS V14.00,2013-06-06 11:45:00,
2013-06-06 07:50:00,76.7,73.6,29.77,South,190,4.0,6.0,90,0.04,,SCT017,0.61,0.00,VWS V14.00,2013-06-06 11:50:00,
2013-06-06 07:55:00,76.6,73.4,29.78,South,190,0.0,6.0,90,0.00,,SCT017,0.61,0.00,VWS V14.00,2013-06-06 11:55:00,
2013-06-06 08:00:00,76.5,73.3,29.78,South,189,0.0,4.0,90,0.00,,SCT017,0.61,0.00,VWS V14.00,2013-06-06 12:00:00,
2013-06-06 08:05:00,76.6,73.4,29.79,South,189,0.0,5.0,90,0.00,,SCT017,0.61,0.00,VWS V14.00,2013-06-06 12:05:00,
2013-06-06 08:10:00,76.8,73.7,29.80,West,259,4.0,6.0,90,0.00,,SCT017,0.61,0.00,VWS V14.00,2013-06-06 12:10:00,
2013-06-06 08:15:00,77.0,73.8,29.80,SSW,213,6.0,6.0,90,0.00,,SCT017,0.61,0.00,VWS V14.00,2013-06-06 12:15:00,
2013-06-06 08:20:00,77.3,74.1,29.80,SSW,205,4.0,6.0,90,0.00,,SCT017,0.61,0.00,VWS V14.00,2013-06-06 12:20:00,
2013-06-06 08:25:00,77.5,74.3,29.80,SSW,205,0.0,3.0,90,0.00,,SCT017,0.61,0.00,VWS V14.00,2013-06-06 12:25:00,
2013-06-06 08:30:00,77.6,74.4,29.81,SSW,204,0.0,0.0,90,0.00,,SCT017,0.61,0.00,VWS V14.00,2013-06-06 12:30:00,
2013-06-06 08:35:00,77.8,74.6,29.81,SSW,200,4.0,4.0,90,0.00,,SCT017,0.61,0.00,VWS V14.00,2013-06-06 12:35:00,
2013-06-06 08:40:00,78.0,74.8,29.81,SSW,205,3.0,7.0,90,0.00,,SCT017,0.61,0.00,VWS V14.00,2013-06-06 12:40:00,
2013-06-06 08:45:00,78.2,75.0,29.81,SSW,203,4.0,5.0,90,0.00,,SCT017,0.61,5.00,VWS V14.00,2013-06-06 12:45:00,
2013-06-06 08:50:00,78.3,75.1,29.80,SSW,203,3.0,5.0,90,0.00,,SCT017,0.61,7.00,VWS V14.00,2013-06-06 12:50:00,
2013-06-06 08:55:00,78.4,75.2,29.80,SSW,194,3.0,9.0,90,0.00,,SCT017,0.61,7.00,VWS V14.00,2013-06-06 12:55:00,
2013-06-06 09:00:00,78.6,75.4,29.81,SW,224,7.0,12.0,90,0.00,,SCT017,0.61,11.00,VWS V14.00,2013-06-06 13:00:00,
2013-06-06 09:05:00,78.8,75.6,29.81,SSW,199,0.0,6.0,90,0.00,,SCT017,0.61,14.00,VWS V14.00,2013-06-06 13:05:00,
2013-06-06 09:10:00,78.9,75.7,29.81,SSW,206,1.0,6.0,90,0.00,,SCT017,0.61,16.00,VWS V14.00,2013-06-06 13:10:00,
2013-06-06 09:16:00,79.1,75.9,29.81,SSW,205,4.0,5.0,90,0.00,,SCT017,0.61,19.00,VWS V14.00,2013-06-06 13:16:00,
2013-06-06 09:21:00,79.2,76.0,29.81,SSW,203,0.0,4.0,90,0.00,,SCT017,0.61,25.00,VWS V14.00,2013-06-06 13:21:00,
2013-06-06 09:26:00,79.3,76.1,29.81,SSW,207,7.0,7.0,90,0.00,,SCT017,0.61,33.00,VWS V14.00,2013-06-06 13:26:00,
2013-06-06 09:31:00,79.5,76.3,29.81,SSW,201,5.0,6.0,90,0.00,,SCT017,0.61,39.00,VWS V14.00,2013-06-06 13:31:00,
2013-06-06 09:36:00,79.7,76.5,29.81,SSW,204,2.0,4.0,90,0.00,,SCT017,0.61,47.00,VWS V14.00,2013-06-06 13:36:00,
2013-06-06 09:41:00,79.8,76.6,29.81,SSW,194,5.0,7.0,90,0.00,,SCT017,0.61,49.00,VWS V14.00,2013-06-06 13:41:00,
2013-06-06 09:46:00,79.9,76.7,29.81,South,183,5.0,11.0,90,0.00,,SCT017,0.61,53.00,VWS V14.00,2013-06-06 13:46:00,
2013-06-06 09:51:00,80.0,76.8,29.81,SSW,212,0.0,10.0,90,0.00,,SCT017,0.61,51.00,VWS V14.00,2013-06-06 13:51:00,
2013-06-06 09:56:00,80.1,76.6,29.81,SSW,201,0.0,7.0,89,0.00,,SCT017,0.61,65.00,VWS V14.00,2013-06-06 13:56:00,
2013-06-06 10:01:00,80.3,76.8,29.81,SSW,209,5.0,13.0,89,0.00,,SCT017,0.61,77.00,VWS V14.00,2013-06-06 14:01:00,
2013-06-06 10:06:00,80.5,77.0,29.81,SSW,196,4.0,15.0,89,0.00,,SCT017,0.61,83.00,VWS V14.00,2013-06-06 14:06:00,
2013-06-06 10:11:00,80.8,77.3,29.81,SSW,212,6.0,11.0,89,0.00,,SCT017,0.61,84.00,VWS V14.00,2013-06-06 14:11:00,
2013-06-06 10:16:00,81.1,77.6,29.82,SSW,210,3.0,7.0,89,0.00,,SCT017,0.61,76.00,VWS V14.00,2013-06-06 14:16:00,
2013-06-06 10:21:00,81.2,77.3,29.81,SW,225,5.0,5.0,88,0.00,,SCT017,0.61,90.00,VWS V14.00,2013-06-06 14:21:00,
2013-06-06 10:26:00,81.6,77.7,29.81,SSW,201,9.0,13.0,88,0.00,,SCT017,0.61,109.00,VWS V14.00,2013-06-06 14:26:00,
2013-06-06 10:31:00,81.8,77.6,29.81,SSW,198,1.0,13.0,87,0.00,,SCT017,0.61,113.00,VWS V14.00,2013-06-06 14:31:00,
2013-06-06 10:36:00,82.1,77.8,29.81,SSW,198,12.0,12.0,87,0.00,,SCT017,0.61,111.00,VWS V14.00,2013-06-06 14:36:00,
2013-06-06 10:41:00,82.4,78.1,29.81,SSW,199,12.0,12.0,87,0.00,,SCT017,0.61,104.00,VWS V14.00,2013-06-06 14:41:00,
2013-06-06 10:46:00,82.6,78.0,29.81,South,188,6.0,12.0,86,0.00,,SCT017,0.61,114.00,VWS V14.00,2013-06-06 14:46:00,
2013-06-06 10:51:00,82.8,78.2,29.81,SW,225,2.0,6.0,86,0.00,,SCT017,0.61,104.00,VWS V14.00,2013-06-06 14:51:00,
2013-06-06 10:56:00,83.0,78.0,29.81,SSW,211,0.0,10.0,85,0.00,,SCT017,0.61,95.00,VWS V14.00,2013-06-06 14:56:00,
2013-06-06 11:01:00,83.1,77.8,29.81,SSW,209,10.0,15.0,84,0.00,,SCT017,0.61,146.00,VWS V14.00,2013-06-06 15:01:00,
2013-06-06 11:06:00,83.6,77.9,29.81,SSW,209,16.0,19.0,83,0.00,,SCT017,0.61,120.00,VWS V14.00,2013-06-06 15:06:00,
2013-06-06 11:11:00,83.8,77.7,29.80,SSW,200,6.0,15.0,82,0.00,,SCT017,0.61,97.00,VWS V14.00,2013-06-06 15:11:00,
2013-06-06 11:16:00,83.9,77.4,29.80,SSW,206,7.0,16.0,81,0.00,,SCT017,0.61,125.00,VWS V14.00,2013-06-06 15:16:00,
2013-06-06 11:22:00,84.2,77.7,29.80,SSW,205,6.0,10.0,81,0.00,,SCT017,0.61,127.00,VWS V14.00,2013-06-06 15:22:00,
2013-06-06 11:27:00,84.5,78.0,29.80,SSW,205,10.0,16.0,81,0.00,,SCT017,0.61,128.00,VWS V14.00,2013-06-06 15:27:00,
2013-06-06 11:32:00,84.8,77.6,29.80,SSW,201,6.0,11.0,79,0.00,,SCT017,0.61,137.00,VWS V14.00,2013-06-06 15:32:00,
2013-06-06 11:37:00,85.0,77.8,29.80,SSW,205,4.0,12.0,79,0.00,,SCT017,0.61,171.00,VWS V14.00,2013-06-06 15:37:00,
2013-06-06 11:42:00,85.2,77.6,29.80,SW,216,9.0,11.0,78,0.00,,SCT017,0.61,209.00,VWS V14.00,2013-06-06 15:42:00,
2013-06-06 11:48:00,85.6,78.0,29.80,SSW,209,5.0,5.0,78,0.00,,SCT017,0.61,130.00,VWS V14.00,2013-06-06 15:48:00,
2013-06-06 11:53:00,85.6,77.6,29.80,SSW,197,11.0,15.0,77,0.00,,SCT017,0.61,185.00,VWS V14.00,2013-06-06 15:53:00,
2013-06-06 11:58:00,85.5,76.7,29.80,SW,224,14.0,19.0,75,0.00,,SCT017,0.61,128.00,VWS V14.00,2013-06-06 15:58:00,
2013-06-06 12:03:00,85.4,76.6,29.80,SSW,212,6.0,14.0,75,0.00,,SCT017,0.61,167.00,VWS V14.00,2013-06-06 16:03:00,
2013-06-06 12:08:00,85.7,76.5,29.80,SW,228,10.0,10.0,74,0.00,,SCT017,0.61,151.00,VWS V14.00,2013-06-06 16:08:00,
2013-06-06 12:13:00,86.1,76.8,29.80,SW,217,4.0,17.0,74,0.00,,SCT017,0.61,213.00,VWS V14.00,2013-06-06 16:13:00,
2013-06-06 12:18:00,86.3,76.2,29.80,South,190,6.0,22.0,72,0.00,,SCT017,0.61,167.00,VWS V14.00,2013-06-06 16:18:00,
2013-06-06 12:23:00,86.4,76.7,29.80,SW,232,9.0,12.0,73,0.00,,SCT017,0.61,174.00,VWS V14.00,2013-06-06 16:23:00,
2013-06-06 12:28:00,86.3,76.6,29.80,SW,225,2.0,10.0,73,0.00,,SCT017,0.61,200.00,VWS V14.00,2013-06-06 16:28:00,
2013-06-06 12:33:00,86.4,76.7,29.79,SSW,194,0.0,10.0,73,0.00,,SCT017,0.61,155.00,VWS V14.00,2013-06-06 16:33:00,
2013-06-06 12:38:00,86.4,76.7,29.79,SW,226,10.0,12.0,73,0.00,,SCT017,0.61,163.00,VWS V14.00,2013-06-06 16:38:00,
2013-06-06 12:43:00,86.0,76.3,29.79,SW,229,4.0,16.0,73,0.00,,SCT017,0.61,111.00,VWS V14.00,2013-06-06 16:43:00,
2013-06-06 12:48:00,86.0,76.8,29.79,South,184,10.0,10.0,74,0.00,,SCT017,0.61,127.00,VWS V14.00,2013-06-06 16:48:00,
2013-06-06 12:53:00,86.0,76.8,29.79,SSW,210,9.0,14.0,74,0.00,,SCT017,0.61,144.00,VWS V14.00,2013-06-06 16:53:00,
2013-06-06 12:58:00,86.2,76.9,29.78,SSW,206,11.0,14.0,74,0.00,,SCT017,0.61,151.00,VWS V14.00,2013-06-06 16:58:00,
2013-06-06 13:03:00,86.3,76.6,29.78,SSW,204,7.0,17.0,73,0.00,,SCT017,0.61,149.00,VWS V14.00,2013-06-06 17:03:00,
2013-06-06 13:08:00,86.5,76.8,29.78,WSW,237,15.0,19.0,73,0.00,,SCT017,0.61,139.00,VWS V14.00,2013-06-06 17:08:00,
2013-06-06 13:13:00,86.8,77.1,29.78,SSW,210,12.0,16.0,73,0.00,,SCT017,0.61,153.00,VWS V14.00,2013-06-06 17:13:00,
2013-06-06 13:18:00,86.8,76.7,29.78,SSW,200,5.0,16.0,72,0.00,,SCT017,0.61,146.00,VWS V14.00,2013-06-06 17:18:00,
2013-06-06 13:23:00,86.9,76.4,29.78,SSW,207,4.0,15.0,71,0.00,,SCT017,0.61,141.00,VWS V14.00,2013-06-06 17:23:00,
2013-06-06 13:28:00,87.1,77.0,29.78,WSW,238,5.0,13.0,72,0.00,,SCT017,0.61,234.00,VWS V14.00,2013-06-06 17:28:00,
2013-06-06 13:33:00,87.1,77.0,29.78,SSW,213,9.0,15.0,72,0.00,,SCT017,0.61,107.00,VWS V14.00,2013-06-06 17:33:00,
2013-06-06 13:38:00,86.7,76.6,29.77,SSW,207,13.0,15.0,72,0.00,,SCT017,0.61,120.00,VWS V14.00,2013-06-06 17:38:00,
2013-06-06 13:43:00,86.7,77.0,29.78,SW,229,7.0,14.0,73,0.00,,SCT017,0.61,185.00,VWS V14.00,2013-06-06 17:43:00,
2013-06-06 13:48:00,86.5,76.8,29.78,WSW,238,8.0,16.0,73,0.00,,SCT017,0.61,102.00,VWS V14.00,2013-06-06 17:48:00,
2013-06-06 13:53:00,86.2,76.5,29.77,SSW,207,6.0,13.0,73,0.00,,SCT017,0.61,113.00,VWS V14.00,2013-06-06 17:53:00,
2013-06-06 13:58:00,86.3,77.0,29.77,SW,221,18.0,20.0,74,0.00,,SCT017,0.61,121.00,VWS V14.00,2013-06-06 17:58:00,
2013-06-06 14:03:00,86.5,77.2,29.76,SW,226,5.0,16.0,74,0.00,,SCT017,0.61,230.00,VWS V14.00,2013-06-06 18:03:00,
2013-06-06 14:09:00,87.3,77.6,29.76,WSW,245,6.0,17.0,73,0.00,,SCT017,0.61,253.00,VWS V14.00,2013-06-06 18:09:00,
2013-06-06 14:14:00,87.8,77.7,29.76,SW,215,14.0,14.0,72,0.00,,SCT017,0.61,211.00,VWS V14.00,2013-06-06 18:14:00,
2013-06-06 14:19:00,88.1,77.9,29.76,South,186,12.0,12.0,72,0.00,,SCT017,0.61,156.00,VWS V14.00,2013-06-06 18:19:00,
2013-06-06 14:24:00,88.1,77.1,29.76,SSW,208,0.0,19.0,70,0.00,,SCT017,0.61,144.00,VWS V14.00,2013-06-06 18:24:00,
2013-06-06 14:29:00,88.0,77.8,29.76,SSW,205,6.0,13.0,72,0.00,,SCT017,0.61,148.00,VWS V14.00,2013-06-06 18:29:00,
2013-06-06 14:34:00,87.9,77.3,29.75,SW,224,5.0,14.0,71,0.00,,SCT017,0.61,190.00,VWS V14.00,2013-06-06 18:34:00,
2013-06-06 14:39:00,87.5,76.9,29.75,WSW,250,10.0,18.0,71,0.00,,SCT017,0.61,118.00,VWS V14.00,2013-06-06 18:39:00,
2013-06-06 14:44:00,87.8,77.7,29.75,SSW,196,17.0,17.0,72,0.00,,SCT017,0.61,100.00,VWS V14.00,2013-06-06 18:44:00,
2013-06-06 14:49:00,87.9,77.8,29.75,SW,228,9.0,12.0,72,0.00,,SCT017,0.61,100.00,VWS V14.00,2013-06-06 18:49:00,
2013-06-06 14:54:00,88.0,77.8,29.75,SW,230,9.0,17.0,72,0.00,,SCT017,0.61,118.00,VWS V14.00,2013-06-06 18:54:00,
2013-06-06 14:59:00,87.7,77.6,29.75,SSW,208,23.0,23.0,72,0.00,,SCT017,0.61,30.00,VWS V14.00,2013-06-06 18:59:00,
2013-06-06 15:04:00,83.1,75.2,29.76,SSW,207,5.0,14.0,77,0.36,,SCT017,0.71,46.00,VWS V14.00,2013-06-06 19:04:00,
2013-06-06 15:09:00,80.3,74.7,29.75,SW,215,3.0,19.0,83,0.09,,SCT017,0.72,35.00,VWS V14.00,2013-06-06 19:09:00,
2013-06-06 15:14:00,79.5,74.9,29.75,SW,215,3.0,6.0,86,0.09,,SCT017,0.72,42.00,VWS V14.00,2013-06-06 19:14:00,
2013-06-06 15:19:00,79.3,75.1,29.75,SSW,213,4.0,4.0,87,0.06,,SCT017,0.72,74.00,VWS V14.00,2013-06-06 19:19:00,
2013-06-06 15:25:00,79.3,75.4,29.75,SSW,198,5.0,10.0,88,0.17,,SCT017,0.74,51.00,VWS V14.00,2013-06-06 19:25:00,
2013-06-06 15:30:00,79.5,76.0,29.75,SW,226,3.0,4.0,89,0.12,,SCT017,0.74,88.00,VWS V14.00,2013-06-06 19:30:00,
2013-06-06 15:35:00,80.0,76.5,29.74,SW,223,5.0,5.0,89,0.06,,SCT017,0.74,120.00,VWS V14.00,2013-06-06 19:35:00,
2013-06-06 15:40:00,80.5,77.0,29.74,SW,219,1.0,10.0,89,0.04,,SCT017,0.74,132.00,VWS V14.00,2013-06-06 19:40:00,
2013-06-06 15:45:00,81.3,77.8,29.74,SSW,209,11.0,14.0,89,0.00,,SCT017,0.74,158.00,VWS V14.00,2013-06-06 19:45:00,
2013-06-06 15:50:00,81.6,77.7,29.74,SSW,211,3.0,6.0,88,0.00,,SCT017,0.74,158.00,VWS V14.00,2013-06-06 19:50:00,
2013-06-06 15:55:00,82.0,78.1,29.74,SSW,202,0.0,3.0,88,0.00,,SCT017,0.74,128.00,VWS V14.00,2013-06-06 19:55:00,
2013-06-06 16:00:00,82.6,78.7,29.75,SW,231,6.0,6.0,88,0.00,,SCT017,0.74,128.00,VWS V14.00,2013-06-06 20:00:00,
2013-06-06 16:05:00,83.0,78.7,29.74,SSW,195,8.0,10.0,87,0.00,,SCT017,0.74,98.00,VWS V14.00,2013-06-06 20:05:00,
2013-06-06 16:10:00,83.6,77.9,29.74,WSW,240,3.0,14.0,83,0.00,,SCT017,0.74,67.00,VWS V14.00,2013-06-06 20:10:00,
2013-06-06 16:15:00,84.0,77.2,29.74,SW,224,7.0,14.0,80,0.00,,SCT017,0.74,70.00,VWS V14.00,2013-06-06 20:15:00,
2013-06-06 16:20:00,84.5,76.9,29.74,SW,225,5.0,13.0,78,0.00,,SCT017,0.74,158.00,VWS V14.00,2013-06-06 20:20:00,
2013-06-06 16:25:00,85.1,76.7,29.74,SW,233,6.0,17.0,76,0.00,,SCT017,0.74,76.00,VWS V14.00,2013-06-06 20:25:00,
2013-06-06 16:30:00,85.3,77.3,29.74,WSW,240,5.0,6.0,77,0.00,,SCT017,0.74,46.00,VWS V14.00,2013-06-06 20:30:00,
2013-06-06 16:35:00,82.7,74.8,29.74,WSW,244,13.0,22.0,77,0.51,,SCT017,0.85,44.00,VWS V14.00,2013-06-06 20:35:00,
2013-06-06 16:40:00,80.7,74.7,29.74,WSW,246,13.0,14.0,82,0.10,,SCT017,0.85,70.00,VWS V14.00,2013-06-06 20:40:00,
2013-06-06 16:45:00,80.4,75.1,29.74,WSW,246,12.0,20.0,84,0.06,,SCT017,0.85,90.00,VWS V14.00,2013-06-06 20:45:00,
2013-06-06 16:50:00,80.9,75.6,29.73,SSW,211,8.0,13.0,84,0.04,,SCT017,0.85,100.00,VWS V14.00,2013-06-06 20:50:00,
2013-06-06 16:55:00,81.3,76.0,29.73,WSW,257,8.0,13.0,84,0.00,,SCT017,0.85,111.00,VWS V14.00,2013-06-06 20:55:00,
2013-06-06 17:00:00,81.9,76.9,29.73,WSW,242,4.0,7.0,85,0.00,,SCT017,0.85,120.00,VWS V14.00,2013-06-06 21:00:00,
2013-06-06 17:05:00,82.3,76.6,29.73,SSW,212,9.0,15.0,83,0.00,,SCT017,0.85,95.00,VWS V14.00,2013-06-06 21:05:00,
2013-06-06 17:10:00,82.6,76.6,29.75,West,281,12.0,23.0,82,0.00,,SCT017,0.85,35.00,VWS V14.00,2013-06-06 21:10:00,
2013-06-06 17:15:00,80.8,72.5,29.76,West,280,19.0,26.0,76,0.00,,SCT017,0.85,12.00,VWS V14.00,2013-06-06 21:15:00,
2013-06-06 17:20:00,78.1,71.8,29.76,WNW,288,10.0,19.0,81,0.00,,SCT017,0.85,26.00,VWS V14.00,2013-06-06 21:20:00,
2013-06-06 17:25:00,77.0,71.8,29.76,West,265,12.0,15.0,84,0.00,,SCT017,0.86,51.00,VWS V14.00,2013-06-06 21:25:00,
2013-06-06 17:30:00,76.6,72.1,29.76,West,263,15.0,15.0,86,0.00,,SCT017,0.86,63.00,VWS V14.00,2013-06-06 21:30:00,
2013-06-06 17:35:00,76.6,72.1,29.75,WSW,256,9.0,13.0,86,0.00,,SCT017,0.86,84.00,VWS V14.00,2013-06-06 21:35:00,
2013-06-06 17:40:00,76.7,71.5,29.75,West,260,10.0,16.0,84,0.00,,BKN036,0.86,65.00,VWS V14.00,2013-06-06 21:40:00,
2013-06-06 17:45:00,76.8,71.2,29.75,WSW,255,4.0,8.0,83,0.00,,BKN036,0.86,54.00,VWS V14.00,2013-06-06 21:45:00,
2013-06-06 17:50:00,76.9,71.7,29.75,WSW,245,3.0,5.0,84,0.00,,BKN036,0.86,63.00,VWS V14.00,2013-06-06 21:50:00,
2013-06-06 17:55:00,76.8,71.6,29.74,WSW,247,6.0,7.0,84,0.00,,BKN036,0.86,62.00,VWS V14.00,2013-06-06 21:55:00,
2013-06-06 18:00:00,76.9,71.7,29.74,SW,234,3.0,9.0,84,0.00,,BKN036,0.86,76.00,VWS V14.00,2013-06-06 22:00:00,
2013-06-06 18:05:00,77.1,71.9,29.75,SW,228,3.0,6.0,84,0.00,,BKN036,0.86,56.00,VWS V14.00,2013-06-06 22:05:00,
2013-06-06 18:10:00,77.3,72.1,29.75,SSW,208,2.0,9.0,84,0.00,,BKN036,0.86,58.00,VWS V14.00,2013-06-06 22:10:00,
2013-06-06 18:15:00,77.2,72.0,29.75,SSW,209,2.0,9.0,84,0.00,,BKN036,0.86,53.00,VWS V14.00,2013-06-06 22:15:00,
2013-06-06 18:20:00,77.2,72.3,29.76,SSW,208,3.0,5.0,85,0.00,,BKN036,0.86,51.00,VWS V14.00,2013-06-06 22:20:00,
2013-06-06 18:25:00,77.2,72.3,29.76,SW,220,2.0,5.0,85,0.00,,BKN036,0.86,37.00,VWS V14.00,2013-06-06 22:25:00,
2013-06-06 18:30:00,77.3,72.4,29.76,SW,220,3.0,6.0,85,0.00,,BKN036,0.86,30.00,VWS V14.00,2013-06-06 22:30:00,
2013-06-06 18:35:00,77.2,72.0,29.76,SW,216,6.0,6.0,84,0.00,,BKN036,0.86,25.00,VWS V14.00,2013-06-06 22:35:00,
2013-06-06 18:40:00,77.3,72.1,29.76,SSW,207,2.0,6.0,84,0.00,,BKN090,0.86,21.00,VWS V14.00,2013-06-06 22:40:00,
2013-06-06 18:45:00,77.3,72.1,29.76,SW,215,3.0,6.0,84,0.00,,BKN090,0.86,25.00,VWS V14.00,2013-06-06 22:45:00,
2013-06-06 18:50:00,77.3,71.7,29.76,SW,232,3.0,6.0,83,0.00,,BKN090,0.86,28.00,VWS V14.00,2013-06-06 22:50:00,
2013-06-06 18:55:00,77.4,71.8,29.76,SW,229,1.0,4.0,83,0.00,,BKN090,0.86,26.00,VWS V14.00,2013-06-06 22:55:00,
2013-06-06 19:01:00,77.3,72.1,29.76,SSW,211,4.0,6.0,84,0.00,,BKN090,0.86,23.00,VWS V14.00,2013-06-06 23:01:00,
2013-06-06 19:05:00,77.3,72.1,29.76,SSW,212,4.0,4.0,84,0.00,,BKN090,0.86,19.00,VWS V14.00,2013-06-06 23:05:00,
2013-06-06 19:11:00,77.2,72.0,29.75,SW,215,3.0,7.0,84,0.00,,BKN090,0.86,18.00,VWS V14.00,2013-06-06 23:11:00,
2013-06-06 19:16:00,77.0,71.8,29.76,SSW,211,6.0,10.0,84,0.00,,BKN090,0.86,14.00,VWS V14.00,2013-06-06 23:16:00,
2013-06-06 19:21:00,76.7,71.5,29.76,SW,215,3.0,9.0,84,0.00,,BKN090,0.86,11.00,VWS V14.00,2013-06-06 23:21:00,
2013-06-06 19:26:00,76.5,71.7,29.76,SSW,201,0.0,8.0,85,0.00,,BKN090,0.86,9.00,VWS V14.00,2013-06-06 23:26:00,
2013-06-06 19:31:00,76.4,71.6,29.76,SSW,211,7.0,10.0,85,0.00,,BKN090,0.86,7.00,VWS V14.00,2013-06-06 23:31:00,
2013-06-06 19:36:00,76.4,71.6,29.76,SSW,207,3.0,6.0,85,0.00,,BKN090,0.86,5.00,VWS V14.00,2013-06-06 23:36:00,
2013-06-06 19:41:00,76.3,71.8,29.76,SSW,213,4.0,7.0,86,0.00,,BKN110,0.86,0.00,VWS V14.00,2013-06-06 23:41:00,
2013-06-06 19:46:00,76.2,71.7,29.76,SSW,204,4.0,7.0,86,0.00,,BKN110,0.86,0.00,VWS V14.00,2013-06-06 23:46:00,
2013-06-06 19:51:00,76.0,71.5,29.76,South,186,0.0,6.0,86,0.00,,BKN110,0.86,0.00,VWS V14.00,2013-06-06 23:51:00,
2013-06-06 19:56:00,75.9,71.4,29.76,SSW,192,5.0,10.0,86,0.00,,BKN110,0.86,0.00,VWS V14.00,2013-06-06 23:56:00,
2013-06-06 20:01:00,75.8,71.7,29.76,SSW,202,6.0,10.0,87,0.00,,BKN110,0.86,0.00,VWS V14.00,2013-06-07 00:01:00,
2013-06-06 20:06:00,75.7,71.6,29.76,SSW,205,0.0,4.0,87,0.00,,BKN110,0.86,0.00,VWS V14.00,2013-06-07 00:06:00,
2013-06-06 20:11:00,75.6,71.5,29.76,SSW,198,5.0,6.0,87,0.00,,BKN110,0.86,0.00,VWS V14.00,2013-06-07 00:11:00,
2013-06-06 20:16:00,75.6,71.5,29.77,SSW,205,9.0,9.0,87,0.00,,BKN110,0.86,0.00,VWS V14.00,2013-06-07 00:16:00,
2013-06-06 20:21:00,75.6,71.5,29.77,SSW,204,0.0,10.0,87,0.00,,BKN110,0.86,0.00,VWS V14.00,2013-06-07 00:21:00,
2013-06-06 20:26:00,75.6,71.8,29.78,SW,217,0.0,5.0,88,0.00,,BKN110,0.86,0.00,VWS V14.00,2013-06-07 00:26:00,
2013-06-06 20:31:00,75.6,71.8,29.78,SSW,209,2.0,6.0,88,0.00,,BKN110,0.86,0.00,VWS V14.00,2013-06-07 00:31:00,
2013-06-06 20:36:00,75.7,71.9,29.78,SSW,205,0.0,4.0,88,0.00,,BKN110,0.86,0.00,VWS V14.00,2013-06-07 00:36:00,
2013-06-06 20:41:00,75.7,71.9,29.78,SSW,212,2.0,6.0,88,0.00,,BKN110,0.86,0.00,VWS V14.00,2013-06-07 00:41:00,
2013-06-06 20:46:00,75.8,72.0,29.78,SW,215,2.0,6.0,88,0.00,,BKN110,0.86,0.00,VWS V14.00,2013-06-07 00:46:00,
2013-06-06 20:51:00,75.9,72.1,29.80,SSW,210,0.0,2.0,88,0.00,,BKN110,0.86,0.00,VWS V14.00,2013-06-07 00:51:00,
2013-06-06 20:57:00,76.0,72.2,29.80,SW,233,4.0,6.0,88,0.00,,BKN110,0.86,0.00,VWS V14.00,2013-06-07 00:57:00,
2013-06-06 21:02:00,76.0,72.2,29.80,SW,224,5.0,7.0,88,0.00,,BKN110,0.86,0.00,VWS V14.00,2013-06-07 01:02:00,
2013-06-06 21:07:00,76.0,72.2,29.81,SW,217,2.0,3.0,88,0.00,,BKN110,0.86,0.00,VWS V14.00,2013-06-07 01:07:00,
2013-06-06 21:12:00,75.9,72.1,29.81,SW,231,4.0,4.0,88,0.00,,BKN110,0.86,0.00,VWS V14.00,2013-06-07 01:12:00,
2013-06-06 21:17:00,75.9,72.1,29.81,SW,236,0.0,3.0,88,0.00,,BKN110,0.86,0.00,VWS V14.00,2013-06-07 01:17:00,
2013-06-06 21:22:00,75.8,72.0,29.81,SW,229,0.0,5.0,88,0.00,,BKN110,0.86,0.00,VWS V14.00,2013-06-07 01:22:00,
2013-06-06 21:27:00,75.8,72.0,29.81,SW,227,6.0,6.0,88,0.00,,BKN110,0.86,0.00,VWS V14.00,2013-06-07 01:27:00,
2013-06-06 21:32:00,75.7,71.9,29.81,SW,226,0.0,5.0,88,0.00,,BKN110,0.86,0.00,VWS V14.00,2013-06-07 01:32:00,
2013-06-06 21:37:00,75.7,72.2,29.81,SW,227,0.0,5.0,89,0.00,,BKN041,0.86,0.00,VWS V14.00,2013-06-07 01:37:00,
2013-06-06 21:42:00,75.7,72.2,29.81,SW,231,1.0,5.0,89,0.00,,BKN041,0.86,0.00,VWS V14.00,2013-06-07 01:42:00,
2013-06-06 21:47:00,75.7,72.2,29.80,SW,227,4.0,6.0,89,0.00,,BKN041,0.86,0.00,VWS V14.00,2013-06-07 01:47:00,
2013-06-06 21:52:00,75.7,72.2,29.80,SW,226,0.0,3.0,89,0.00,,BKN041,0.86,0.00,VWS V14.00,2013-06-07 01:52:00,
2013-06-06 21:57:00,75.7,72.2,29.80,SW,228,5.0,5.0,89,0.00,,BKN041,0.86,0.00,VWS V14.00,2013-06-07 01:57:00,
2013-06-06 22:02:00,75.7,72.2,29.80,SW,228,1.0,2.0,89,0.00,,BKN041,0.86,0.00,VWS V14.00,2013-06-07 02:02:00,
2013-06-06 22:07:00,75.7,72.2,29.80,SW,230,1.0,1.0,89,0.00,,BKN041,0.86,0.00,VWS V14.00,2013-06-07 02:07:00,
2013-06-06 22:12:00,75.7,72.2,29.80,SW,229,0.0,1.0,89,0.00,,BKN041,0.86,0.00,VWS V14.00,2013-06-07 02:12:00,
2013-06-06 22:17:00,75.7,72.2,29.80,SW,229,0.0,2.0,89,0.00,,BKN041,0.86,0.00,VWS V14.00,2013-06-07 02:17:00,
2013-06-06 22:22:00,75.6,72.1,29.80,SW,229,4.0,4.0,89,0.00,,BKN041,0.86,0.00,VWS V14.00,2013-06-07 02:22:00,
2013-06-06 22:27:00,75.6,72.1,29.81,SW,230,4.0,4.0,89,0.00,,BKN041,0.86,0.00,VWS V14.00,2013-06-07 02:27:00,
2013-06-06 22:32:00,75.6,72.1,29.82,SW,230,1.0,5.0,89,0.00,,BKN041,0.86,0.00,VWS V14.00,2013-06-07 02:32:00,
2013-06-06 22:37:00,75.7,72.2,29.82,SW,228,3.0,5.0,89,0.00,,SCT120,0.86,0.00,VWS V14.00,2013-06-07 02:37:00,
2013-06-06 22:43:00,75.7,72.2,29.82,WSW,254,3.0,10.0,89,0.00,,SCT120,0.86,0.00,VWS V14.00,2013-06-07 02:43:00,
2013-06-06 22:48:00,75.7,72.2,29.82,WSW,248,0.0,2.0,89,0.00,,SCT120,0.86,0.00,VWS V14.00,2013-06-07 02:48:00,
2013-06-06 22:53:00,75.7,72.2,29.82,WSW,242,1.0,9.0,89,0.00,,SCT120,0.86,0.00,VWS V14.00,2013-06-07 02:53:00,
2013-06-06 22:58:00,75.7,72.2,29.82,WSW,249,6.0,7.0,89,0.00,,SCT120,0.86,0.00,VWS V14.00,2013-06-07 02:58:00,
2013-06-06 23:03:00,75.8,72.3,29.82,WSW,246,2.0,2.0,89,0.00,,SCT120,0.86,0.00,VWS V14.00,2013-06-07 03:03:00,
2013-06-06 23:08:00,75.8,72.3,29.82,WSW,244,0.0,1.0,89,0.00,,SCT120,0.86,0.00,VWS V14.00,2013-06-07 03:08:00,
2013-06-06 23:13:00,75.8,72.3,29.81,WSW,242,4.0,5.0,89,0.00,,SCT120,0.86,0.00,VWS V14.00,2013-06-07 03:13:00,
2013-06-06 23:18:00,75.8,72.3,29.82,WSW,242,0.0,0.0,89,0.00,,SCT120,0.86,0.00,VWS V14.00,2013-06-07 03:18:00,
2013-06-06 23:23:00,75.7,72.2,29.81,WSW,242,0.0,4.0,89,0.00,,SCT120,0.86,0.00,VWS V14.00,2013-06-07 03:23:00,
2013-06-06 23:28:00,75.6,72.1,29.81,WSW,242,0.0,0.0,89,0.00,,SCT120,0.86,0.00,VWS V14.00,2013-06-07 03:28:00,
2013-06-06 23:34:00,75.6,72.1,29.81,WSW,242,0.0,4.0,89,0.00,,SCT120,0.86,0.00,VWS V14.00,2013-06-07 03:34:00,
2013-06-06 23:39:00,75.6,72.1,29.81,WSW,244,0.0,0.0,89,0.00,,SCT120,0.86,0.00,VWS V14.00,2013-06-07 03:39:00,
2013-06-06 23:44:00,75.6,72.1,29.80,WSW,244,0.0,0.0,89,0.00,,SCT120,0.86,0.00,VWS V14.00,2013-06-07 03:44:00,
2013-06-06 23:49:00,75.5,72.0,29.81,WSW,244,0.0,0.0,89,0.00,,SCT120,0.86,0.00,VWS V14.00,2013-06-07 03:49:00,
2013-06-06 23:54:00,75.5,72.0,29.80,WSW,244,0.0,1.0,89,0.00,,SCT120,0.86,0.00,VWS V14.00,2013-06-07 03:54:00,
2013-06-06 23:59:00,75.4,71.9,29.80,WSW,244,0.0,0.0,89,0.00,,SCT120,0.86,0.00,VWS V14.00,2013-06-07 03:59:00,